Terminal Aerodrome Forecast
Issued by NWS

Home | Current Version | Previous Version | Text Only | Print | Product List | Glossary On
Versions: 1 2 3 4 5 6 7 8 9 10 11 12 13 14 15 16 17 18 19 20
443
FTUS43 KLSX 232320
TAFUIN
TAF
KUIN 232320Z 2400/2424 32012G20KT P6SM FEW200
     FM240100 31007KT P6SM FEW250
     FM241600 32011KT P6SM FEW250=

USA.gov is the U.S. government's official web portal to all federal, state and local government web resources and services.